When you browse on this site, cookies collect data to enhance your experience and personalize the content and advertising you see.
Visit our Privacy Policy to learn more. By continuing to use the site, you agree to this use of cookies and data.
  • In Österreich
  • Länderverzeichnis
  • Für 7 Tage
  • Wassertemperatur
  • Wetterkarte
  • News
  • Widgets
  • user-avatar
    Anmelden

    Stündliche Wetter Roquefort-sur-Soulzon

    Heute, 9 Dezember, Montag

    Zeit Temperatur Niederschläge Wind Luftdruck Luftfeuchtigkeit
    00:00 +5°C° 0.1 mm 6 m/S 716 mmHg 89%
    01:00 +5°C° 0.1 mm 7 m/S 715 mmHg 89%
    02:00 +5°C° 0.1 mm 7 m/S 715 mmHg 89%
    03:00 +5°C° 0.1 mm 8 m/S 715 mmHg 89%
    04:00 +5°C° 0.4 mm 8 m/S 715 mmHg 89%
    05:00 +5°C° 0.4 mm 8 m/S 715 mmHg 90%
    06:00 +5°C° 0.4 mm 8 m/S 715 mmHg 90%
    07:00 +4°C° 0.8 mm 8 m/S 715 mmHg 91%
    08:00 +4°C° 0.8 mm 8 m/S 715 mmHg 91%
    09:00 +4°C° 0.8 mm 8 m/S 715 mmHg 92%
    10:00 +4°C° 0.7 mm 8 m/S 715 mmHg 91%
    11:00 +4°C° 0.7 mm 8 m/S 715 mmHg 91%
    12:00 +3°C° 0.7 mm 9 m/S 715 mmHg 91%
    13:00 +3°C° 0.4 mm 9 m/S 715 mmHg 89%
    14:00 +3°C° 0.4 mm 9 m/S 715 mmHg 86%
    15:00 +3°C° 0.4 mm 9 m/S 715 mmHg 84%
    16:00 +2°C° 0.1 mm 8 m/S 716 mmHg 85%
    17:00 +2°C° 0.1 mm 8 m/S 717 mmHg 86%
    18:00 +1°C° 0.1 mm 8 m/S 717 mmHg 87%
    19:00 +2°C° 0.1 mm 7 m/S 718 mmHg 87%
    20:00 0°C° 0.1 mm 7 m/S 718 mmHg 86%
    21:00 +1°C° 0.1 mm 6 m/S 719 mmHg 86%
    22:00 +1°C° 0 mm 6 m/S 719 mmHg 86%
    23:00 -1°C° 0 mm 6 m/S 720 mmHg 86%

    Morgen, 10 Dezember, Dienstag

    Zeit Temperatur Niederschläge Wind Luftdruck Luftfeuchtigkeit
    00:00 -1°C° 0 mm 6 m/S 720 mmHg 87%
    01:00 -2°C° 0 mm 6 m/S 720 mmHg 87%
    02:00 -2°C° 0 mm 6 m/S 720 mmHg 88%
    03:00 -1°C° 0 mm 5 m/S 720 mmHg 89%
    04:00 -2°C° 0 mm 5 m/S 720 mmHg 89%
    05:00 -2°C° 0 mm 4 m/S 720 mmHg 89%
    06:00 -2°C° 0 mm 4 m/S 721 mmHg 90%
    07:00 -2°C° 0 mm 4 m/S 721 mmHg 86%
    08:00 0°C° 0 mm 3 m/S 721 mmHg 82%
    09:00 0°C° 0 mm 3 m/S 721 mmHg 79%
    10:00 +1°C° 0 mm 3 m/S 720 mmHg 72%
    11:00 +3°C° 0 mm 3 m/S 720 mmHg 66%
    12:00 +4°C° 0 mm 3 m/S 719 mmHg 59%
    13:00 +4°C° 0 mm 3 m/S 719 mmHg 62%
    14:00 +5°C° 0 mm 2 m/S 718 mmHg 64%
    15:00 +5°C° 0 mm 2 m/S 718 mmHg 66%
    16:00 +3°C° 0 mm 2 m/S 718 mmHg 70%
    17:00 +2°C° 0 mm 2 m/S 717 mmHg 74%
    18:00 +2°C° 0 mm 1 m/S 717 mmHg 78%
    19:00 +2°C° 0 mm 1 m/S 717 mmHg 73%
    20:00 +2°C° 0 mm 1 m/S 717 mmHg 68%
    21:00 +2°C° 0 mm 1 m/S 717 mmHg 62%
    22:00 +2°C° 0 mm 1 m/S 716 mmHg 58%
    23:00 +3°C° 0 mm 1 m/S 716 mmHg 54%

    übermorgen, 11 Dezember, Mittwoch

    Zeit Temperatur Niederschläge Wind Luftdruck Luftfeuchtigkeit
    00:00 +3°C° 0 mm 1 m/S 715 mmHg 50%
    01:00 +3°C° 0 mm 1 m/S 715 mmHg 48%
    02:00 +3°C° 0 mm 1 m/S 715 mmHg 46%
    03:00 +4°C° 0 mm 1 m/S 714 mmHg 44%
    04:00 +3°C° 0 mm 0 m/S 714 mmHg 43%
    05:00 +3°C° 0 mm 0 m/S 714 mmHg 42%
    06:00 +3°C° 0 mm 0 m/S 714 mmHg 41%
    07:00 +4°C° 0 mm 0 m/S 714 mmHg 43%
    08:00 +5°C° 0 mm 0 m/S 714 mmHg 44%
    09:00 +6°C° 0 mm 0 m/S 714 mmHg 45%
    10:00 +5°C° 0.6 mm 0 m/S 714 mmHg 58%
    11:00 +5°C° 0.6 mm 1 m/S 713 mmHg 72%
    12:00 +4°C° 0.6 mm 1 m/S 713 mmHg 85%
    13:00 +4°C° 1.1 mm 2 m/S 713 mmHg 88%
    14:00 +3°C° 1.1 mm 3 m/S 714 mmHg 92%
    15:00 +2°C° 1.1 mm 5 m/S 714 mmHg 96%
    16:00 +2°C° 0.1 mm 5 m/S 714 mmHg 94%
    17:00 +2°C° 0.1 mm 6 m/S 714 mmHg 93%
    18:00 +2°C° 0.1 mm 7 m/S 715 mmHg 91%
    19:00 +2°C° 0 mm 7 m/S 715 mmHg 92%
    20:00 +2°C° 0 mm 7 m/S 715 mmHg 92%
    21:00 +2°C° 0 mm 7 m/S 715 mmHg 92%
    22:00 +2°C° 0.4 mm 7 m/S 715 mmHg 93%
    23:00 +2°C° 0.4 mm 7 m/S 715 mmHg 93%

    12 Dezember, Donnerstag

    Zeit Temperatur Niederschläge Wind Luftdruck Luftfeuchtigkeit
    00:00 +2°C° 0.4 mm 7 m/S 714 mmHg 93%
    01:00 +2°C° 0.3 mm 6 m/S 714 mmHg 93%
    02:00 +1°C° 0.3 mm 6 m/S 714 mmHg 92%
    03:00 +1°C° 0.3 mm 5 m/S 714 mmHg 92%
    04:00 +1°C° 0.3 mm 5 m/S 715 mmHg 92%
    05:00 +1°C° 0.3 mm 5 m/S 715 mmHg 93%
    06:00 +1°C° 0.3 mm 4 m/S 715 mmHg 93%
    07:00 +1°C° 0.2 mm 4 m/S 715 mmHg 94%
    08:00 +1°C° 0.2 mm 4 m/S 715 mmHg 95%
    09:00 +2°C° 0.2 mm 3 m/S 715 mmHg 96%
    10:00 +2°C° 0.1 mm 3 m/S 715 mmHg 94%
    11:00 +3°C° 0.1 mm 3 m/S 715 mmHg 93%
    12:00 +3°C° 0.1 mm 3 m/S 715 mmHg 91%
    13:00 +4°C° 0.4 mm 3 m/S 714 mmHg 93%
    14:00 +4°C° 0.4 mm 3 m/S 713 mmHg 95%
    15:00 +5°C° 0.4 mm 2 m/S 713 mmHg 97%
    16:00 +4°C° 0.9 mm 3 m/S 713 mmHg 97%
    17:00 +4°C° 0.9 mm 4 m/S 713 mmHg 97%
    18:00 +4°C° 0.9 mm 4 m/S 712 mmHg 96%
    19:00 +3°C° 0.6 mm 5 m/S 712 mmHg 95%
    20:00 +5°C° 0.6 mm 5 m/S 712 mmHg 95%
    21:00 +5°C° 0.6 mm 5 m/S 711 mmHg 94%
    22:00 +5°C° 0.7 mm 5 m/S 711 mmHg 94%
    23:00 +4°C° 0.7 mm 6 m/S 710 mmHg 94%

    13 Dezember, Freitag

    Zeit Temperatur Niederschläge Wind Luftdruck Luftfeuchtigkeit
    00:00 +4°C° 0.7 mm 6 m/S 710 mmHg 94%
    01:00 +5°C° 1.8 mm 6 m/S 709 mmHg 94%
    02:00 +6°C° 1.8 mm 7 m/S 709 mmHg 95%
    03:00 +6°C° 1.8 mm 8 m/S 708 mmHg 95%
    04:00 +7°C° 2.3 mm 8 m/S 708 mmHg 95%
    05:00 +9°C° 2.3 mm 8 m/S 708 mmHg 94%
    06:00 +8°C° 2.3 mm 9 m/S 708 mmHg 94%
    07:00 +8°C° 2.8 mm 9 m/S 708 mmHg 94%
    08:00 +8°C° 2.8 mm 9 m/S 709 mmHg 94%
    09:00 +8°C° 2.8 mm 9 m/S 709 mmHg 94%
    10:00 +8°C° 2.5 mm 9 m/S 709 mmHg 94%
    11:00 +8°C° 2.5 mm 9 m/S 709 mmHg 94%
    12:00 +8°C° 2.5 mm 10 m/S 709 mmHg 93%
    13:00 +8°C° 2.2 mm 10 m/S 709 mmHg 93%
    14:00 +8°C° 2.2 mm 10 m/S 709 mmHg 93%
    15:00 +8°C° 2.2 mm 10 m/S 709 mmHg 93%
    16:00 +8°C° 1.8 mm 10 m/S 710 mmHg 92%
    17:00 +8°C° 1.8 mm 10 m/S 710 mmHg 91%
    18:00 +8°C° 1.8 mm 10 m/S 710 mmHg 91%
    19:00 +8°C° 0.3 mm 10 m/S 711 mmHg 90%
    20:00 +8°C° 0.3 mm 10 m/S 711 mmHg 90%
    21:00 +8°C° 0.3 mm 10 m/S 712 mmHg 89%
    22:00 +8°C° 0.2 mm 9 m/S 712 mmHg 90%
    23:00 +7°C° 0.2 mm 9 m/S 712 mmHg 90%

    14 Dezember, Samstag

    Zeit Temperatur Niederschläge Wind Luftdruck Luftfeuchtigkeit
    00:00 +7°C° 0.2 mm 8 m/S 713 mmHg 91%
    01:00 +7°C° 0.2 mm 8 m/S 713 mmHg 91%
    02:00 +7°C° 0.2 mm 8 m/S 713 mmHg 92%
    03:00 +7°C° 0.2 mm 8 m/S 713 mmHg 92%
    04:00 +7°C° 0 mm 8 m/S 713 mmHg 91%
    05:00 +7°C° 0 mm 8 m/S 713 mmHg 91%
    06:00 +8°C° 0 mm 7 m/S 714 mmHg 90%
    07:00 +8°C° 0.1 mm 7 m/S 714 mmHg 90%
    08:00 +8°C° 0.1 mm 6 m/S 714 mmHg 90%
    09:00 +8°C° 0.1 mm 6 m/S 715 mmHg 90%
    10:00 +8°C° 0 mm 6 m/S 715 mmHg 89%
    11:00 +8°C° 0 mm 6 m/S 715 mmHg 88%
    12:00 +8°C° 0 mm 6 m/S 715 mmHg 87%
    13:00 +8°C° 0.1 mm 5 m/S 715 mmHg 87%
    14:00 +8°C° 0.1 mm 5 m/S 714 mmHg 86%
    15:00 +8°C° 0.1 mm 4 m/S 714 mmHg 85%
    16:00 +7°C° 0 mm 4 m/S 714 mmHg 89%
    17:00 +7°C° 0 mm 3 m/S 715 mmHg 92%
    18:00 +6°C° 0 mm 2 m/S 715 mmHg 96%
    19:00 +6°C° 0 mm 2 m/S 715 mmHg 96%
    20:00 +7°C° 0 mm 1 m/S 715 mmHg 96%
    21:00 +6°C° 0 mm 1 m/S 715 mmHg 97%
    22:00 +6°C° 0 mm 1 m/S 715 mmHg 97%
    23:00 +6°C° 0 mm 1 m/S 715 mmHg 97%
    Mehr zeigen